SKW5246 KDEN-KCOS

Flight info

Callsign SKW5246
Flight time 0h 19m
Altitude 17000
Route DCT LUFSE V389 ADANE/N0347F160 DCT BRK DCT
Aircraft E75L/M-SDE3GILORVW/S

Departure

Time 2026-04-18 04:17
Airport Denver International Airport (KDEN)

Arrival

Time 2026-04-18 04:36
Airport City of Colorado Springs Municipal Airport (KCOS)
Time Latitude Longitude Altitude Speed Heading
2026-04-18 04:00 39.86354 -104.67309 5383 ft 0 kts 179°
2026-04-18 04:08 39.86356 -104.67309 5383 ft 1 kts 179°
2026-04-18 04:08 39.86373 -104.67310 5384 ft 3 kts 179°
2026-04-18 04:08 39.86393 -104.67310 5381 ft 3 kts 179°
2026-04-18 04:08 39.86413 -104.67310 5384 ft 3 kts 179°
2026-04-18 04:09 39.86434 -104.67310 5382 ft 3 kts 179°
2026-04-18 04:09 39.86439 -104.67310 5384 ft 0 kts 180°
2026-04-18 04:11 39.86418 -104.67291 5384 ft 6 kts 128°
2026-04-18 04:12 39.86410 -104.67240 5384 ft 8 kts 92°
2026-04-18 04:12 39.86412 -104.67147 5384 ft 13 kts 88°
2026-04-18 04:12 39.86412 -104.67013 5384 ft 17 kts 91°
2026-04-18 04:12 39.86410 -104.66830 5384 ft 23 kts 91°
2026-04-18 04:13 39.86406 -104.66655 5384 ft 14 kts 92°
2026-04-18 04:13 39.86425 -104.66585 5381 ft 7 kts 46°
2026-04-18 04:13 39.86442 -104.66570 5384 ft 4 kts 41°
2026-04-18 04:13 39.86494 -104.66473 5384 ft 17 kts 78°
2026-04-18 04:14 39.86500 -104.66305 5384 ft 19 kts 86°
2026-04-18 04:14 39.86535 -104.66235 5381 ft 9 kts 17°
2026-04-18 04:14 39.86644 -104.66226 5377 ft 22 kts 359°
2026-04-18 04:14 39.86825 -104.66224 5373 ft 28 kts
2026-04-18 04:15 39.87036 -104.66223 5366 ft 33 kts
2026-04-18 04:15 39.87277 -104.66210 5362 ft 36 kts 358°
2026-04-18 04:15 39.87528 -104.66214 5361 ft 37 kts 356°
2026-04-18 04:15 39.87619 -104.66215 5360 ft 11 kts 360°
2026-04-18 04:16 39.87714 -104.66197 5357 ft 17 kts 28°
2026-04-18 04:16 39.87753 -104.66010 5354 ft 38 kts 91°
2026-04-18 04:16 39.87744 -104.65229 5354 ft 131 kts 90°
2026-04-18 04:16 39.87757 -104.63843 6021 ft 154 kts 90°
2026-04-18 04:17 39.87731 -104.62373 6109 ft 190 kts 105°
2026-04-18 04:17 39.86902 -104.60815 6102 ft 223 kts 147°
2026-04-18 04:17 39.85524 -104.60265 7268 ft 197 kts 186°
2026-04-18 04:17 39.84239 -104.60516 8460 ft 182 kts 195°
2026-04-18 04:18 39.82902 -104.60870 8810 ft 213 kts 196°
2026-04-18 04:18 39.81377 -104.61295 9274 ft 236 kts 196°
2026-04-18 04:18 39.79723 -104.61743 9819 ft 255 kts 194°
2026-04-18 04:18 39.77872 -104.61901 10329 ft 277 kts 181°
2026-04-18 04:19 39.75857 -104.61625 10794 ft 297 kts 173°
2026-04-18 04:19 39.73767 -104.61089 10981 ft 322 kts 169°
2026-04-18 04:19 39.71562 -104.60406 11029 ft 329 kts 168°
2026-04-18 04:19 39.69334 -104.59654 11023 ft 329 kts 166°
2026-04-18 04:20 39.67150 -104.58753 11008 ft 329 kts 163°
2026-04-18 04:20 39.65717 -104.58120 11002 ft 329 kts 163°
2026-04-18 04:20 39.63548 -104.57159 10996 ft 329 kts 163°
2026-04-18 04:20 39.61373 -104.56191 11004 ft 329 kts 163°
2026-04-18 04:21 39.58513 -104.54917 10993 ft 329 kts 163°
2026-04-18 04:21 39.57038 -104.54261 10987 ft 330 kts 163°
2026-04-18 04:21 39.54883 -104.53299 10993 ft 332 kts 163°
2026-04-18 04:21 39.52692 -104.52326 11014 ft 331 kts 163°
2026-04-18 04:22 39.50512 -104.51355 11018 ft 331 kts 163°
2026-04-18 04:22 39.48336 -104.50386 11004 ft 331 kts 163°
2026-04-18 04:22 39.46154 -104.49415 11011 ft 331 kts 163°
2026-04-18 04:22 39.44001 -104.48457 11018 ft 331 kts 163°
2026-04-18 04:23 39.41802 -104.47481 11015 ft 331 kts 163°
2026-04-18 04:23 39.39645 -104.46523 11013 ft 331 kts 163°
2026-04-18 04:23 39.37465 -104.45556 11030 ft 331 kts 163°
2026-04-18 04:23 39.35348 -104.44615 11014 ft 311 kts 163°
2026-04-18 04:24 39.33343 -104.43723 10994 ft 290 kts 164°
2026-04-18 04:24 39.31519 -104.42917 10988 ft 273 kts 164°
2026-04-18 04:24 39.29751 -104.42135 10976 ft 264 kts 164°
2026-04-18 04:24 39.28025 -104.41375 10981 ft 261 kts 165°
2026-04-18 04:25 39.26295 -104.40611 10995 ft 262 kts 164°
2026-04-18 04:25 39.24567 -104.39846 11010 ft 263 kts 164°
2026-04-18 04:25 39.22851 -104.39046 11017 ft 263 kts 162°
2026-04-18 04:25 39.21149 -104.38164 11023 ft 264 kts 160°
2026-04-18 04:26 39.19463 -104.37203 11024 ft 265 kts 158°
2026-04-18 04:26 39.17809 -104.36175 10912 ft 265 kts 156°
2026-04-18 04:26 39.16168 -104.35068 10692 ft 265 kts 154°
2026-04-18 04:26 39.14566 -104.33902 10456 ft 265 kts 152°
2026-04-18 04:27 39.12990 -104.32681 10157 ft 265 kts 153°
2026-04-18 04:27 39.11232 -104.31980 9725 ft 266 kts 180°
2026-04-18 04:27 39.09453 -104.32286 9503 ft 254 kts 204°
2026-04-18 04:27 39.08009 -104.33545 9032 ft 248 kts 232°
2026-04-18 04:28 39.07270 -104.35418 9034 ft 228 kts 257°
2026-04-18 04:28 39.06832 -104.37356 9129 ft 226 kts 258°
2026-04-18 04:28 39.06397 -104.39319 9094 ft 228 kts 258°
2026-04-18 04:28 39.05946 -104.41270 9077 ft 228 kts 257°
2026-04-18 04:29 39.05490 -104.43208 9060 ft 228 kts 257°
2026-04-18 04:29 39.05030 -104.45156 9022 ft 228 kts 257°
2026-04-18 04:29 39.04570 -104.47115 9012 ft 228 kts 257°
2026-04-18 04:29 39.04112 -104.49056 9011 ft 227 kts 257°
2026-04-18 04:30 39.03653 -104.51010 9015 ft 228 kts 257°
2026-04-18 04:30 39.03196 -104.52955 9024 ft 227 kts 257°
2026-04-18 04:30 39.02741 -104.54905 9009 ft 228 kts 257°
2026-04-18 04:30 39.02289 -104.56855 9014 ft 227 kts 257°
2026-04-18 04:31 39.01862 -104.58811 9027 ft 227 kts 262°
2026-04-18 04:31 39.01660 -104.60795 9013 ft 224 kts 268°
2026-04-18 04:31 39.01434 -104.62778 9006 ft 227 kts 255°
2026-04-18 04:31 39.00486 -104.64479 8603 ft 246 kts 219°
2026-04-18 04:32 38.98896 -104.65303 8524 ft 240 kts 202°
2026-04-18 04:32 38.97321 -104.65981 9188 ft 244 kts 201°
2026-04-18 04:32 38.95652 -104.66486 9454 ft 254 kts 200°
2026-04-18 04:32 38.94040 -104.67337 9143 ft 244 kts 213°
2026-04-18 04:33 38.92434 -104.68035 8973 ft 239 kts 197°
2026-04-18 04:33 38.90828 -104.68373 8366 ft 233 kts 188°
2026-04-18 04:33 38.89251 -104.68509 7881 ft 220 kts 184°
2026-04-18 04:33 38.87777 -104.68560 7496 ft 205 kts 181°
2026-04-18 04:34 38.86372 -104.68575 7396 ft 199 kts 181°
2026-04-18 04:34 38.85002 -104.68570 7145 ft 195 kts 180°
2026-04-18 04:34 38.83644 -104.68551 6736 ft 194 kts 180°
2026-04-18 04:34 38.82312 -104.68559 6409 ft 189 kts 182°
2026-04-18 04:35 38.81035 -104.68572 6215 ft 176 kts 181°
2026-04-18 04:35 38.79910 -104.68581 6192 ft 145 kts 181°
2026-04-18 04:35 38.79140 -104.68583 6190 ft 62 kts 181°
2026-04-18 04:35 38.78734 -104.68597 6192 ft 55 kts 185°
2026-04-18 04:36 38.78545 -104.68740 6192 ft 19 kts 278°
2026-04-18 04:36 38.78646 -104.68788 6192 ft 20 kts
2026-04-18 04:36 38.78851 -104.68789 6192 ft 42 kts 359°
2026-04-18 04:36 38.79243 -104.68791 6191 ft 62 kts
2026-04-18 04:37 38.79665 -104.68806 6191 ft 60 kts 353°
2026-04-18 04:37 38.80063 -104.68792 6192 ft 57 kts 359°
2026-04-18 04:37 38.80361 -104.68835 6192 ft 27 kts 299°
2026-04-18 04:37 38.80362 -104.69102 6191 ft 38 kts 267°
2026-04-18 04:38 38.80357 -104.69524 6191 ft 50 kts 272°
2026-04-18 04:38 38.80340 -104.69717 6190 ft 9 kts 220°
2026-04-18 04:38 38.80267 -104.69724 6191 ft 15 kts 179°
2026-04-18 04:38 38.80129 -104.69721 6191 ft 24 kts 179°
2026-04-18 04:39 38.80081 -104.69753 6191 ft 7 kts 252°
2026-04-18 04:39 38.80075 -104.69871 6191 ft 20 kts 272°
2026-04-18 04:39 38.80075 -104.70085 6191 ft 26 kts 266°
2026-04-18 04:39 38.80071 -104.70314 6191 ft 18 kts 271°
2026-04-18 04:40 38.80051 -104.70368 6190 ft 4 kts 178°
2026-04-18 04:40 38.79974 -104.70358 6191 ft 19 kts 174°
2026-04-18 04:40 38.79910 -104.70283 6191 ft 15 kts 114°
2026-04-18 04:40 38.79891 -104.70169 6191 ft 7 kts 111°
2026-04-18 04:41 38.79885 -104.70147 6191 ft 0 kts 108°